Theta_e
350 357 368 369 369 369 368 368 366 365 362 361 361 361 360 360 359 361 360 359 358 359 359 359 359 360 360 359 357 355 359 360 360 358 360 358 356 358 358 354 357 347 355
352 356 367 368 369 369 367 369 367 364 363 362 363 361 361 360 360 359 360 359 359 359 361 359 359 360 359 358 357 356 356 359 359 360 358 357 357 352 357 358 356 348 351
350 355 360 367 368 368 367 369 368 366 362 362 363 362 361 361 359 358 359 360 360 359 360 360 359 358 359 358 359 357 358 359 360 357 359 350 349 351 355 355 353 358 356
353 349 355 366 367 367 367 368 367 365 362 362 364 362 361 360 360 359 360 359 358 359 360 360 360 358 357 358 359 358 357 357 357 356 354 349 342 355 352 359 358 356 352
355 352 357 366 366 365 367 368 367 366 365 363 362 361 360 360 362 361 360 358 360 359 360 361 360 357 357 358 358 358 357 357 357 357 354 354 343 355 354 354 355 356 356
353 357 362 366 364 364 365 366 366 366 365 363 361 360 361 360 361 361 358 359 360 360 361 359 357 358 359 358 359 357 357 356 356 355 352 355 347 355 358 357 358 356 352
350 359 358 366 365 364 363 364 364 365 364 363 361 360 360 361 361 359 359 360 359 359 360 358 357 359 360 360 359 358 358 357 353 350 348 353 351 357 354 357 358 355 356
357 358 357 365 366 365 363 362 362 362 362 363 362 360 359 360 361 360 360 360 359 359 360 359 359 360 360 358 357 356 357 356 355 350 350 350 355 357 354 356 355 352 351
358 361 360 359 362 363 362 363 363 362 362 362 361 360 360 360 359 360 360 359 359 359 360 360 358 361 360 358 356 356 358 358 353 354 351 350 359 360 354 351 356 356 354
357 359 358 361 365 361 359 363 363 362 362 362 360 360 361 359 359 359 361 362 359 359 360 359 358 359 359 358 358 357 358 358 351 351 352 349 359 359 360 353 351 352 355
356 349 341 348 356 361 362 363 362 360 361 361 360 360 360 358 359 361 360 362 359 359 360 359 360 361 360 359 358 358 357 350 350 352 350 356 359 360 359 357 354 356 353
353 348 336 348 352 356 355 362 362 358 357 357 358 360 357 358 359 360 361 360 360 359 359 360 362 361 359 354 355 357 352 349 350 353 353 359 360 360 358 360 358 357 354
354 355 354 355 353 351 351 353 358 364 360 363 363 363 361 362 359 357 358 357 359 360 356 358 358 356 355 353 349 351 349 348 350 351 356 361 361 361 359 361 360 358 356
356 357 358 357 356 356 356 354 359 355 359 361 362 363 363 361 361 359 356 359 357 357 358 355 354 354 354 355 351 350 351 349 348 349 357 362 362 362 361 361 363 361 358
357 359 360 361 359 357 358 361 360 357 360 358 358 363 362 362 359 357 357 358 359 361 357 357 360 354 355 359 357 354 354 354 353 351 356 363 363 362 363 362 362 361 361
357 360 361 360 359 361 358 358 359 359 358 359 361 361 363 360 362 360 360 353 358 356 357 358 356 357 355 358 358 358 353 354 355 355 355 359 361 361 363 364 364 364 362
358 362 359 358 359 358 358 359 358 361 361 362 357 357 361 360 363 362 361 357 355 358 363 354 357 360 356 357 356 354 355 353 353 352 353 356 358 362 361 361 363 363 363
360 361 361 358 358 358 358 358 357 354 355 358 358 358 362 362 362 362 354 353 358 356 361 360 355 357 358 355 352 355 354 354 354 354 355 353 356 354 359 361 360 359 360
363 363 361 358 358 358 359 359 362 363 360 360 357 360 360 359 361 361 357 359 358 358 360 358 359 358 353 351 351 348 350 355 352 351 352 353 353 357 355 360 359 354 356
362 361 359 357 360 361 358 360 358 360 360 363 361 361 356 359 360 357 356 357 356 351 355 352 353 355 354 355 350 347 353 348 354 351 353 351 357 356 356 356 347 349 354
357 360 359 358 358 355 355 354 354 351 353 356 358 359 356 353 356 355 353 356 354 349 346 354 354 348 351 355 343 346 348 348 351 350 350 355 351 355 350 357 353 353 351
354 357 359 358 359 358 358 358 360 360 357 360 363 359 359 355 351 352 353 351 355 353 354 352 351 349 351 349 346 345 338 343 347 349 353 352 352 353 353 356 355 355 355
353 356 357 358 358 360 361 358 359 358 358 355 356 357 358 356 354 350 350 353 353 351 347 349 350 349 344 345 351 343 335 331 342 349 345 348 349 350 354 353 354 356 356
353 355 358 358 359 362 364 356 355 353 350 354 355 356 356 355 355 352 350 351 352 350 347 345 344 343 344 341 348 347 348 345 334 330 339 338 347 348 349 350 351 352 352
354 353 355 358 360 364 364 363 357 356 354 354 354 355 359 356 354 352 351 352 350 350 348 348 347 348 346 346 344 345 345 345 342 335 329 334 340 340 341 342 346 350 351
354 354 353 356 358 364 362 361 361 358 358 355 352 352 352 354 352 352 350 349 347 346 342 345 347 345 346 348 348 341 338 337 336 335 334 337 336 334 335 337 340 347 348
Wind_Speed
16 18 16 16 16 14 14 12 13 13 13 13 12 11 10 9 8 8 10 9 9 8 11 10 10 10 11 11 11 11 11 12 13 13 15 14 12 12 10 6 13 13 12
19 17 16 15 15 15 13 12 13 12 13 12 11 11 10 9 7 8 8 8 8 9 10 11 10 9 11 11 11 11 10 9 11 13 15 14 12 10 12 16 16 12 12
20 17 14 14 15 14 12 12 13 12 12 12 10 11 10 9 7 7 7 8 8 9 9 11 11 10 10 10 10 9 7 7 8 11 15 10 9 10 12 14 14 12 12
19 16 15 12 13 14 13 13 13 13 12 11 11 11 9 8 7 5 7 7 7 8 9 10 9 10 10 10 10 8 5 5 7 9 6 6 11 10 11 13 11 10 11
18 17 16 14 13 14 13 13 13 13 14 11 10 10 8 7 9 9 7 6 9 8 9 10 10 11 10 9 10 7 6 5 5 5 4 8 8 10 10 10 11 9 7
20 20 21 18 15 13 13 12 12 13 13 12 9 8 8 9 9 8 7 8 8 8 10 9 10 11 9 10 8 5 5 4 5 7 10 14 10 12 10 7 14 12 11
15 16 16 20 16 14 11 11 11 11 11 12 10 7 8 9 9 8 8 7 8 7 8 9 10 11 10 9 7 5 5 7 7 3 7 11 10 13 10 10 10 9 9
17 19 14 15 15 13 12 10 10 10 10 10 10 9 6 8 9 9 9 8 7 8 7 8 9 9 9 9 6 4 8 7 10 3 10 9 13 13 10 8 9 8 7
18 17 16 13 10 11 11 10 10 9 9 8 8 10 9 8 7 8 9 8 8 7 8 8 9 9 9 9 7 5 9 9 7 6 7 8 13 14 11 9 8 7 8
11 16 16 9 7 7 9 11 11 10 10 9 8 10 11 9 8 7 8 8 9 8 8 8 9 9 9 9 8 8 9 9 7 8 4 8 16 15 13 10 9 8 7
7 31 16 6 2 3 2 7 9 10 10 9 8 10 9 7 9 10 11 13 10 9 8 8 8 9 9 8 9 8 7 5 5 2 4 17 16 16 14 11 9 8 7
12 16 17 9 8 5 4 3 7 9 8 8 8 9 7 8 7 7 11 13 11 10 9 9 8 9 9 7 6 9 4 8 3 3 4 15 16 16 13 10 10 9 8
16 13 14 11 7 7 4 3 3 2 4 3 6 6 7 2 5 4 5 5 5 10 6 8 7 6 9 7 6 7 8 8 4 2 9 11 13 15 14 11 10 9 9
16 15 18 13 9 6 3 3 5 4 4 3 4 5 5 3 3 3 4 5 5 5 5 8 5 8 9 8 4 3 6 6 4 4 8 17 15 15 15 12 11 12 11
8 13 12 11 9 7 6 4 4 4 4 7 7 7 5 5 4 5 5 5 4 4 5 5 4 4 4 3 4 9 7 4 4 3 4 15 15 15 16 16 14 14 14
8 14 13 10 9 6 6 6 4 5 6 6 5 7 10 7 5 5 5 4 4 4 4 4 5 4 5 3 4 4 5 4 5 5 6 7 16 15 17 17 17 16 16
9 13 11 10 8 4 3 4 4 1 2 2 4 7 7 6 5 6 4 6 6 5 5 3 4 4 4 5 6 4 4 6 6 6 2 5 7 14 13 14 15 17 17
10 9 14 10 9 8 5 5 5 5 5 5 4 5 4 3 5 4 4 5 2 5 4 4 5 4 3 3 4 3 4 4 6 5 4 4 6 5 10 14 14 11 13
10 8 8 9 8 8 6 4 3 5 4 4 4 4 7 6 4 3 5 3 5 3 2 3 2 3 4 4 5 4 3 4 5 4 5 6 6 5 5 9 6 2 12
12 9 9 8 8 8 6 5 4 3 3 2 3 1 3 4 5 4 4 3 2 3 2 3 5 5 4 3 4 3 3 3 4 3 3 1 4 3 5 4 4 5 9
10 12 11 9 10 5 5 5 6 7 6 4 3 6 6 7 9 8 5 3 4 4 5 3 3 6 4 1 4 5 4 6 6 3 5 2 7 4 11 4 4 4 6
10 11 10 10 10 8 6 5 1 2 3 1 1 3 5 7 8 8 8 7 6 4 3 3 4 4 2 3 3 1 2 4 2 4 3 2 3 5 7 5 5 4 6
12 12 10 10 11 10 5 6 2 1 2 3 3 3 3 4 5 9 8 6 4 3 3 4 3 5 5 3 4 3 2 4 2 2 5 5 4 2 3 3 2 2 3
12 11 12 11 12 9 8 8 9 4 3 2 2 4 4 2 3 4 6 8 6 4 5 4 4 5 5 6 3 5 4 2 0 3 4 7 4 5 6 4 5 5 5
12 12 11 10 9 8 7 5 4 3 4 4 2 4 2 4 3 5 3 4 5 4 4 5 6 8 6 6 6 2 4 1 1 2 2 4 1 4 4 5 5 4 4
11 12 12 10 8 7 8 6 4 4 2 1 3 2 4 4 4 5 5 3 3 3 3 3 4 1 4 5 4 3 3 3 4 3 6 4 2 3 3 4 4 4 4
Wind_Direction
128 131 128 127 129 139 145 148 145 141 141 138 133 126 121 116 116 114 106 106 102 103 104 117 110 107 102 96 88 88 88 95 98 99 93 93 99 92 88 113 130 101 101
124 130 129 128 129 137 148 148 146 143 140 140 138 132 130 125 126 116 118 119 111 108 106 111 122 113 107 103 105 101 105 113 122 123 115 103 95 86 70 67 92 107 109
126 125 134 133 133 133 136 143 145 142 143 144 143 141 135 136 137 133 136 130 125 115 111 114 121 116 111 111 110 115 126 144 136 142 149 123 98 89 80 89 99 98 121
122 138 136 136 134 132 135 140 143 145 147 152 150 143 144 151 139 155 136 137 127 123 123 121 128 115 115 113 125 124 158 169 171 174 216 131 109 99 98 94 102 112 108
138 144 132 141 140 137 136 139 144 147 147 152 151 148 155 148 150 145 143 136 135 132 130 134 126 121 122 121 127 140 192 204 233 230 208 105 110 115 107 110 111 107 92
357 126 142 145 142 141 141 142 146 146 148 150 157 168 158 155 151 144 145 144 129 148 142 134 133 129 125 131 136 180 230 254 274 272 99 87 99 127 117 94 104 106 107
195 126 147 143 140 142 146 145 147 147 156 158 165 182 172 151 152 151 153 151 148 154 147 144 143 136 141 143 156 204 252 265 279 226 109 107 118 128 119 110 112 115 114
150 143 147 133 136 141 147 152 154 162 169 168 160 153 171 139 144 142 150 157 155 156 166 153 142 149 145 150 170 224 269 289 311 279 116 124 139 130 127 123 135 125 125
134 132 135 129 135 147 157 165 167 174 174 171 166 157 161 150 148 154 152 160 157 169 169 164 154 145 150 156 168 222 270 293 308 294 130 127 146 137 141 146 144 146 153
141 137 90 82 141 163 170 179 178 182 188 191 185 168 172 173 177 185 166 162 158 172 175 168 162 162 164 176 183 212 256 288 262 284 98 143 153 145 153 160 164 165 157
124 90 119 196 166 148 280 180 184 190 198 205 196 191 189 204 188 173 197 163 173 176 179 176 177 172 178 192 203 221 256 256 289 341 104 147 152 150 158 166 174 173 177
117 117 145 173 163 171 162 201 203 189 197 201 200 182 213 220 185 156 150 164 176 182 184 188 181 184 191 196 204 221 240 257 239 184 129 153 155 155 162 172 183 191 191
121 127 152 164 173 170 205 175 184 206 230 221 205 181 225 182 180 180 158 170 175 188 187 187 188 204 203 229 194 190 216 245 228 117 146 165 168 156 164 184 191 203 211
134 137 144 160 177 186 204 189 167 184 216 186 228 187 216 208 224 201 174 186 190 187 210 188 183 201 223 216 153 219 281 278 216 159 188 163 180 167 172 189 199 207 217
134 126 129 138 160 183 189 192 196 184 212 203 193 195 192 226 197 207 193 189 185 183 196 189 195 208 246 234 200 206 234 298 201 167 138 177 193 183 181 190 203 212 219
147 128 138 147 160 181 202 200 202 191 199 236 163 198 183 200 202 203 196 186 184 192 175 198 196 184 218 232 267 233 247 300 301 285 165 200 192 196 194 194 200 208 217
144 138 147 145 162 155 230 206 196 248 242 293 98 277 202 202 196 264 215 215 170 181 154 149 197 144 238 217 223 228 204 236 246 237 254 180 196 208 214 207 209 212 213
145 142 156 158 148 163 180 188 195 187 199 222 210 173 187 203 175 258 262 260 108 152 170 177 206 169 264 292 264 237 203 231 243 254 223 232 181 192 215 217 217 224 230
119 135 127 126 156 167 167 178 220 171 220 212 211 180 177 216 202 214 277 336 47 333 223 201 205 183 213 241 234 238 240 244 240 259 263 232 220 177 195 205 182 53 332
135 149 144 154 158 177 171 184 195 179 228 279 306 230 199 211 193 212 275 291 42 305 284 214 231 220 230 216 286 242 215 281 260 261 236 352 343 143 173 204 205 189 200
145 153 157 175 150 167 189 205 208 193 200 189 208 217 226 216 204 197 206 241 204 237 265 316 230 253 254 206 28 276 249 200 238 268 262 193 163 60 314 214 214 190 228
153 156 163 166 162 200 182 214 4 344 82 112 204 202 234 227 205 209 199 204 214 215 228 252 244 241 254 228 227 188 281 297 310 307 335 7 277 165 237 275 275 214 240
160 161 171 168 163 214 219 119 136 104 7 206 197 191 178 206 199 196 205 192 181 217 232 234 234 208 234 272 213 188 201 227 345 357 360 318 40 25 350 338 338 348 323
163 166 162 171 179 197 182 164 188 196 190 196 199 145 158 174 138 196 185 187 196 187 204 220 231 240 252 248 254 223 235 131 139 337 28 331 322 58 15 16 12 9 357
167 164 161 174 190 187 163 262 162 200 168 154 106 138 127 144 183 150 157 195 193 195 215 241 261 237 224 225 216 196 206 151 82 226 234 227 178 50 15 360 356 3 7
178 164 163 165 188 203 167 201 207 170 138 136 143 229 162 165 169 176 177 177 187 199 229 266 278 330 303 248 232 167 175 171 186 185 231 228 200 64 28 12 360 4 46